• In Lithuania
  • List of Countries
  • For 7 days
  • Water Temperature
  • Satellite Maps
  • Weather Map
  • Weather Widgets
  • user-avatar
    Login

    Hourly Weather Gold Coast

    Today, 18 August, Friday

    Time Temperature Precipitation Wind Pressure Humidity
    00:00 +18°C° 0 mm 4 mps 755 mmHg 43%
    01:00 +16°C° 0 mm 5 mps 755 mmHg 43%
    02:00 +16°C° 0 mm 5 mps 755 mmHg 41%
    03:00 +15°C° 0 mm 6 mps 756 mmHg 40%
    04:00 +15°C° 0 mm 5 mps 755 mmHg 39%
    05:00 +15°C° 0 mm 6 mps 756 mmHg 40%
    06:00 +15°C° 0 mm 6 mps 756 mmHg 40%
    07:00 +15°C° 0 mm 6 mps 756 mmHg 41%
    08:00 +17°C° 0 mm 6 mps 756 mmHg 35%
    09:00 +21°C° 0 mm 6 mps 756 mmHg 30%
    10:00 +23°C° 0 mm 5 mps 756 mmHg 22%
    11:00 +25°C° 0 mm 5 mps 756 mmHg 20%
    12:00 +26°C° 0 mm 6 mps 755 mmHg 18%
    13:00 +27°C° 0 mm 7 mps 755 mmHg 17%
    14:00 +26°C° 0 mm 7 mps 755 mmHg 18%
    15:00 +24°C° 0 mm 6 mps 754 mmHg 19%
    16:00 +24°C° 0 mm 6 mps 754 mmHg 20%
    17:00 +21°C° 0 mm 7 mps 755 mmHg 24%
    18:00 +18°C° 0 mm 7 mps 755 mmHg 27%
    19:00 +16°C° 0 mm 8 mps 756 mmHg 31%
    20:00 +16°C° 0 mm 8 mps 757 mmHg 33%
    21:00 +15°C° 0 mm 8 mps 757 mmHg 36%
    22:00 +13°C° 0 mm 8 mps 758 mmHg 39%
    23:00 +12°C° 0 mm 8 mps 758 mmHg 39%

    Tomorrow, 19 August, Saturday

    Time Temperature Precipitation Wind Pressure Humidity
    00:00 +12°C° 0 mm 8 mps 758 mmHg 40%
    01:00 +11°C° 0 mm 8 mps 758 mmHg 41%
    02:00 +10°C° 0 mm 8 mps 758 mmHg 41%
    03:00 +10°C° 0 mm 8 mps 758 mmHg 42%
    04:00 +9°C° 0 mm 8 mps 758 mmHg 43%
    05:00 +9°C° 0 mm 8 mps 758 mmHg 42%
    06:00 +9°C° 0 mm 8 mps 758 mmHg 42%
    07:00 +9°C° 0 mm 8 mps 758 mmHg 41%
    08:00 +11°C° 0 mm 8 mps 758 mmHg 35%
    09:00 +13°C° 0 mm 8 mps 758 mmHg 30%
    10:00 +16°C° 0 mm 8 mps 758 mmHg 24%
    11:00 +17°C° 0 mm 8 mps 758 mmHg 21%
    12:00 +18°C° 0 mm 8 mps 757 mmHg 18%
    13:00 +20°C° 0 mm 7 mps 757 mmHg 16%
    14:00 +20°C° 0 mm 7 mps 757 mmHg 16%
    15:00 +18°C° 0 mm 7 mps 756 mmHg 17%
    16:00 +18°C° 0 mm 7 mps 756 mmHg 17%
    17:00 +16°C° 0 mm 6 mps 757 mmHg 21%
    18:00 +14°C° 0 mm 6 mps 758 mmHg 24%
    19:00 +11°C° 0 mm 6 mps 759 mmHg 27%
    20:00 +11°C° 0 mm 6 mps 759 mmHg 29%
    21:00 +10°C° 0 mm 7 mps 760 mmHg 30%
    22:00 +10°C° 0 mm 7 mps 760 mmHg 32%
    23:00 +9°C° 0 mm 7 mps 760 mmHg 35%

    Day after tomorrow, 20 August, Sunday

    Time Temperature Precipitation Wind Pressure Humidity
    00:00 +9°C° 0 mm 8 mps 760 mmHg 38%
    01:00 +7°C° 0 mm 8 mps 760 mmHg 41%
    02:00 +7°C° 0 mm 8 mps 760 mmHg 43%
    03:00 +7°C° 0 mm 8 mps 760 mmHg 46%
    04:00 +7°C° 0 mm 8 mps 760 mmHg 48%
    05:00 +8°C° 0 mm 7 mps 760 mmHg 49%
    06:00 +8°C° 0 mm 7 mps 761 mmHg 50%
    07:00 +8°C° 0 mm 7 mps 761 mmHg 52%
    08:00 +10°C° 0 mm 7 mps 761 mmHg 47%
    09:00 +12°C° 0 mm 7 mps 761 mmHg 42%
    10:00 +16°C° 0 mm 7 mps 761 mmHg 37%
    11:00 +17°C° 0 mm 7 mps 761 mmHg 35%
    12:00 +18°C° 0 mm 7 mps 760 mmHg 34%
    13:00 +20°C° 0 mm 7 mps 759 mmHg 32%
    14:00 +20°C° 0 mm 6 mps 759 mmHg 34%
    15:00 +20°C° 0 mm 6 mps 759 mmHg 35%
    16:00 +20°C° 0 mm 6 mps 759 mmHg 37%
    17:00 +17°C° 0 mm 6 mps 760 mmHg 44%
    18:00 +15°C° 0 mm 6 mps 760 mmHg 51%
    19:00 +13°C° 0 mm 6 mps 761 mmHg 58%
    20:00 +12°C° 0.1 mm 5 mps 761 mmHg 62%
    21:00 +12°C° 0.1 mm 5 mps 761 mmHg 66%
    22:00 +10°C° 0.1 mm 5 mps 762 mmHg 69%
    23:00 +9°C° 0.2 mm 5 mps 762 mmHg 71%

    21 August, Monday

    Time Temperature Precipitation Wind Pressure Humidity
    00:00 +9°C° 0.2 mm 5 mps 761 mmHg 72%
    01:00 +8°C° 0.2 mm 5 mps 761 mmHg 74%
    02:00 +8°C° 0.1 mm 4 mps 761 mmHg 74%
    03:00 +8°C° 0.1 mm 4 mps 761 mmHg 74%
    04:00 +7°C° 0.1 mm 4 mps 760 mmHg 75%
    05:00 +8°C° 0.1 mm 3 mps 761 mmHg 73%
    06:00 +9°C° 0.1 mm 3 mps 761 mmHg 71%
    07:00 +9°C° 0.1 mm 3 mps 762 mmHg 69%
    08:00 +13°C° 0 mm 3 mps 762 mmHg 61%
    09:00 +17°C° 0 mm 2 mps 762 mmHg 52%
    10:00 +21°C° 0 mm 2 mps 762 mmHg 44%
    11:00 +21°C° 0 mm 2 mps 761 mmHg 42%
    12:00 +21°C° 0 mm 2 mps 760 mmHg 39%
    13:00 +23°C° 0 mm 2 mps 760 mmHg 37%
    14:00 +23°C° 0 mm 2 mps 759 mmHg 38%
    15:00 +21°C° 0 mm 2 mps 759 mmHg 40%
    16:00 +21°C° 0 mm 3 mps 759 mmHg 41%
    17:00 +20°C° 0 mm 3 mps 759 mmHg 53%
    18:00 +18°C° 0 mm 3 mps 759 mmHg 64%
    19:00 +15°C° 0 mm 4 mps 760 mmHg 76%
    20:00 +15°C° 0 mm 4 mps 760 mmHg 81%
    21:00 +15°C° 0 mm 4 mps 760 mmHg 85%
    22:00 +14°C° 0 mm 4 mps 760 mmHg 90%
    23:00 +14°C° 0 mm 5 mps 760 mmHg 91%

    22 August, Tuesday

    Time Temperature Precipitation Wind Pressure Humidity
    00:00 +14°C° 0 mm 5 mps 759 mmHg 91%
    01:00 +14°C° 0 mm 5 mps 759 mmHg 92%
    02:00 +14°C° 0 mm 5 mps 759 mmHg 92%
    03:00 +13°C° 0 mm 5 mps 759 mmHg 92%
    04:00 +13°C° 0 mm 5 mps 759 mmHg 91%
    05:00 +13°C° 0 mm 5 mps 759 mmHg 90%
    06:00 +13°C° 0 mm 5 mps 759 mmHg 89%
    07:00 +13°C° 0 mm 5 mps 760 mmHg 88%
    08:00 +15°C° 0 mm 5 mps 759 mmHg 72%
    09:00 +19°C° 0 mm 6 mps 759 mmHg 57%
    10:00 +22°C° 0 mm 6 mps 759 mmHg 41%
    11:00 +25°C° 0 mm 5 mps 758 mmHg 34%
    12:00 +26°C° 0 mm 5 mps 758 mmHg 26%
    13:00 +28°C° 0 mm 4 mps 757 mmHg 19%
    14:00 +28°C° 0 mm 4 mps 757 mmHg 20%
    15:00 +27°C° 0 mm 3 mps 757 mmHg 21%
    16:00 +27°C° 0 mm 3 mps 757 mmHg 22%
    17:00 +24°C° 0 mm 3 mps 757 mmHg 26%
    18:00 +21°C° 0 mm 3 mps 758 mmHg 30%
    19:00 +18°C° 0 mm 3 mps 758 mmHg 34%
    20:00 +17°C° 0 mm 4 mps 759 mmHg 38%
    21:00 +17°C° 0 mm 4 mps 759 mmHg 43%
    22:00 +15°C° 0 mm 5 mps 759 mmHg 47%
    23:00 +14°C° 0 mm 4 mps 759 mmHg 51%

    23 August, Wednesday

    Time Temperature Precipitation Wind Pressure Humidity
    00:00 +14°C° 0 mm 4 mps 759 mmHg 54%
    01:00 +13°C° 0 mm 4 mps 759 mmHg 58%
    02:00 +13°C° 0 mm 4 mps 759 mmHg 61%
    03:00 +12°C° 0 mm 4 mps 759 mmHg 63%
    04:00 +12°C° 0 mm 4 mps 759 mmHg 66%
    05:00 +12°C° 0 mm 3 mps 760 mmHg 66%
    06:00 +12°C° 0 mm 3 mps 760 mmHg 67%
    07:00 +12°C° 0 mm 3 mps 760 mmHg 68%
    08:00 +16°C° 0 mm 3 mps 761 mmHg 57%
    09:00 +20°C° 0 mm 2 mps 761 mmHg 46%
    10:00 +24°C° 0 mm 2 mps 761 mmHg 35%
    11:00 +25°C° 0 mm 2 mps 760 mmHg 31%
    12:00 +26°C° 0 mm 2 mps 759 mmHg 27%
    13:00 +27°C° 0 mm 2 mps 759 mmHg 24%
    14:00 +27°C° 0 mm 3 mps 759 mmHg 26%
    15:00 +27°C° 0 mm 3 mps 759 mmHg 29%
    16:00 +26°C° 0 mm 4 mps 759 mmHg 32%
    17:00 +22°C° 0 mm 4 mps 759 mmHg 45%
    18:00 +19°C° 0 mm 3 mps 760 mmHg 57%
    19:00 +17°C° 0 mm 3 mps 761 mmHg 69%
    20:00 +16°C° 0.2 mm 3 mps 761 mmHg 74%
    21:00 +15°C° 0.2 mm 4 mps 762 mmHg 79%
    22:00 +14°C° 0.2 mm 4 mps 762 mmHg 83%
    23:00 +14°C° 0.1 mm 4 mps 762 mmHg 84%
    Show more